Nadi, Fiji

10:03 PM +12 on July 24, 2017 (GMT +1200)
Nadi International

Weather History for NFFN - February, 2013

Change the Weather History Date:

Thursday, February 7, 2013

  Actual Average Record
Temperature  
Mean Temperature 80 °F -  
Max Temperature 86 °F 86 °F 93 °F (2016)
Min Temperature 74 °F 73 °F 68 °F (1998)
Cooling Degree Days 15    
Growing Degree Days 30 (Base 50)    
Moisture  
Dew Point 74 °F    
Average Humidity 83    
Maximum Humidity 100    
Minimum Humidity 66    
Precipitation  
Precipitation 0.00 in 0.40 in - ()
Sea Level Pressure  
Sea Level Pressure 29.71 in    
Wind  
Wind Speed 5 mph ()    
Max Wind Speed 12 mph    
Max Gust Speed -    
Visibility 10.6 miles    
Events      
Averages and records for this station are not official NWS values.
T = Trace of Precipitation, MM = Missing Value Source: Averaged Metar Reports

Daily Weather History Graph

Daily Weather History Graph

Search for Another Location

Airport or City:

Trip Planner

Search our weather history database for the weather conditions in past years. The results will help you decide how hot, cold, wet, or windy it might be!

Date:

Astronomy

Feb. 07, 2013 Rise Set
Actual Time 6:00 AM +12 6:47 PM +12
Civil Twilight 5:37 AM +12 7:10 PM +12
Nautical Twilight 5:10 AM +12 7:37 PM +12
Astronomical Twilight 4:43 AM +12 8:04 PM +12
Moon 2:27 AM +12 (2/7) 3:52 PM +12 (2/7)
Length of Visible Light 13h 33m
Length of Day
12h 47m
Waning Crescent, 14% of the Moon is Illuminated
Feb 7
Waning Crescent
Feb 10
New
Feb 18
First Quarter
Feb 26
Full
Mar 5
Last Quarter

Hourly Weather History & Observations

Time (+12) Temp. Heat Index Dew Point Humidity Pressure Visibility Wind Dir Wind Speed Gust Speed Precip Events Conditions
12:00 AM 75 °F - 73 °F 93% 29.74 in 12 mi SE 8.1 mph - -   Partly Cloudy
12:00 AM 75.2 °F - 73.4 °F 94% 29.74 in 24.9 mi SE 8.1 mph - N/A   Mostly Cloudy
1:00 AM 75.2 °F - 73.4 °F 94% 29.71 in 24.9 mi East 5.8 mph - N/A   Mostly Cloudy
2:00 AM 75.2 °F - 73.4 °F 94% 29.68 in 24.9 mi ESE 3.5 mph - N/A   Mostly Cloudy
3:00 AM 75 °F - 73 °F 92% 29.69 in 12 mi Calm Calm - -   Partly Cloudy
3:00 AM 75.2 °F - 73.4 °F 94% 29.68 in 24.9 mi Calm Calm - N/A   Scattered Clouds
4:00 AM 75.2 °F - 73.4 °F 94% 29.68 in 24.9 mi Calm Calm - N/A   Mostly Cloudy
5:00 AM 75.2 °F - 73.4 °F 94% 29.68 in 24.9 mi Calm Calm - N/A   Scattered Clouds
6:00 AM 73.4 °F - 73.4 °F 100% 29.71 in 31.1 mi ESE 5.8 mph - N/A   Mostly Cloudy
7:00 AM 75.2 °F - 73.4 °F 94% 29.74 in 31.1 mi SE 5.8 mph - N/A   Scattered Clouds
8:00 AM 78.8 °F - 73.4 °F 83% 29.74 in 31.1 mi Calm Calm - N/A   Partly Cloudy
9:00 AM 82.4 °F 89.5 °F 75.2 °F 79% 29.74 in 31.1 mi Calm Calm - N/A   Partly Cloudy
10:00 AM 82.4 °F 87.2 °F 71.6 °F 70% 29.74 in 31.1 mi West 6.9 mph - N/A   Scattered Clouds
11:00 AM 84.2 °F 92.3 °F 75.2 °F 74% 29.74 in 31.1 mi WNW 9.2 mph - N/A   Scattered Clouds
12:00 PM 85 °F - 75 °F 66% 29.74 in 31 mi West 10.4 mph - -   Partly Cloudy
12:00 PM 84.2 °F 92.3 °F 75.2 °F 74% 29.74 in 6.2 mi West 10.4 mph - N/A   Scattered Clouds
1:00 PM 84.2 °F 92.3 °F 75.2 °F 74% 29.71 in 31.1 mi West 9.2 mph - N/A   Scattered Clouds
2:00 PM 86.0 °F 96.9 °F 77.0 °F 74% 29.68 in 31.1 mi West 11.5 mph - N/A   Scattered Clouds
3:00 PM 86 °F - 77 °F 68% 29.69 in 31 mi West 11.5 mph - -   Partly Cloudy
3:00 PM 86.0 °F 96.9 °F 77.0 °F 74% 29.68 in 31.1 mi West 11.5 mph - N/A   Scattered Clouds
4:00 PM 86.0 °F 93.4 °F 73.4 °F 66% 29.65 in 31.1 mi West 11.5 mph - N/A   Scattered Clouds
5:00 PM 84.2 °F 94.1 °F 77.0 °F 79% 29.65 in 31.1 mi South 11.5 mph - N/A   Scattered Clouds
6:00 PM 84 °F - 76 °F 70% 29.70 in 31 mi SE 6.9 mph - -   Partly Cloudy
6:00 PM 84.2 °F 92.3 °F 75.2 °F 74% 29.68 in 31.1 mi SE 6.9 mph - N/A   Scattered Clouds
7:00 PM 80.6 °F 86.2 °F 75.2 °F 84% 29.71 in 31.1 mi SSE 6.9 mph - N/A   Scattered Clouds
8:00 PM 78.8 °F - 75.2 °F 89% 29.74 in 28.0 mi SSE 8.1 mph - N/A   Mostly Cloudy
9:00 PM 79 °F - 74 °F 81% 29.77 in 12 mi SE 6.9 mph - -   Partly Cloudy
9:00 PM 78.8 °F - 73.4 °F 83% 29.74 in 28.0 mi SE 8.1 mph - N/A   Scattered Clouds
10:00 PM 78.8 °F - 75.2 °F 89% 29.77 in 28.0 mi ESE 5.8 mph - N/A   Scattered Clouds
11:00 PM 78.8 °F - 73.4 °F 83% 29.77 in 24.9 mi ESE 5.8 mph - N/A   Partly Cloudy